| time (UTC) | temp C | wind direction | speed KPH | gust KPH | rain 1hr cm | rain 24hr cm | rain mn cm | humidity % | barometer mb |
| 20260507212911 | 13 | 273 | 0.0 | 0.0 | 0.00 | 0.00 | 0.00 | 83 | 1013.2 |
| 20260507205944 | 13 | 273 | 0.0 | 0.0 | 0.00 | 0.00 | 0.00 | 82 | 1012.9 |
| 20260507202928 | 15 | 273 | 0.0 | 0.0 | 0.00 | 0.00 | 0.00 | 81 | 1012.7 |
| 20260507195940 | 15 | 273 | 0.0 | 0.0 | 0.00 | 0.00 | 0.00 | 80 | 1012.5 |
| 20260507192914 | 16 | 271 | 0.0 | 6.4 | 0.00 | 0.00 | 0.00 | 79 | 1012.2 |
| 20260507185930 | 16 | 266 | 3.2 | 6.4 | 0.00 | 0.00 | 0.00 | 78 | 1012.1 |
| 20260507182915 | 16 | 288 | 3.2 | 8.0 | 0.00 | 0.00 | 0.00 | 77 | 1011.9 |
| 20260507175937 | 17 | 232 | 8.0 | 11.3 | 0.00 | 0.00 | 0.00 | 76 | 1012.1 |
| 20260507172926 | 17 | 210 | 8.0 | 14.5 | 0.00 | 0.00 | 0.00 | 75 | 1012.0 |
| 20260507165920 | 17 | 249 | 6.4 | 14.5 | 0.00 | 0.00 | 0.00 | 74 | 1011.9 |
| 20260507162933 | 18 | 224 | 8.0 | 16.1 | 0.00 | 0.00 | 0.00 | 73 | 1012.0 |
| 20260507155921 | 18 | 240 | 8.0 | 17.7 | 0.00 | 0.00 | 0.00 | 72 | 1012.2 |
| 20260507152937 | 18 | 225 | 6.4 | 17.7 | 0.00 | 0.00 | 0.00 | 72 | 1012.3 |
| 20260507145931 | 18 | 273 | 9.7 | 19.3 | 0.00 | 0.00 | 0.00 | 72 | 1012.5 |
| 20260507142921 | 18 | 236 | 11.3 | 19.3 | 0.00 | 0.00 | 0.00 | 72 | 1012.7 |
| 20260507135912 | 18 | 198 | 12.9 | 19.3 | 0.00 | 0.00 | 0.00 | 70 | 1012.8 |
| 20260507132927 | 18 | 229 | 11.3 | 22.5 | 0.00 | 0.00 | 0.00 | 70 | 1012.9 |
| 20260507125915 | 18 | 288 | 9.7 | 22.5 | 0.00 | 0.00 | 0.00 | 69 | 1013.2 |
| 20260507122927 | 19 | 210 | 11.3 | 24.1 | 0.00 | 0.00 | 0.00 | 66 | 1013.0 |
| 20260507115915 | 18 | 245 | 8.0 | 17.7 | 0.00 | 0.00 | 0.00 | 67 | 1013.0 |
| 20260507112911 | 18 | 225 | 9.7 | 19.3 | 0.00 | 0.00 | 0.00 | 65 | 1012.9 |
| 20260507105927 | 18 | 277 | 11.3 | 19.3 | 0.00 | 0.00 | 0.00 | 68 | 1012.8 |
| 20260507102912 | 18 | 254 | 6.4 | 16.1 | 0.00 | 0.00 | 0.00 | 67 | 1013.0 |
| 20260507095955 | 18 | 261 | 11.3 | 14.5 | 0.00 | 0.00 | 0.00 | 67 | 1013.2 |
| 20260507092925 | 17 | 270 | 9.7 | 16.1 | 0.00 | 0.00 | 0.00 | 68 | 1013.3 |
| 20260507085913 | 17 | 229 | 9.7 | 17.7 | 0.00 | 0.00 | 0.00 | 69 | 1013.1 |
| 20260507082927 | 17 | 246 | 9.7 | 14.5 | 0.00 | 0.00 | 0.00 | 70 | 1012.9 |
| 20260507075943 | 16 | 232 | 8.0 | 12.9 | 0.00 | 0.00 | 0.00 | 71 | 1012.8 |
| 20260507072937 | 16 | 216 | 8.0 | 11.3 | 0.00 | 0.00 | 0.00 | 80 | 1013.0 |
| 20260507065924 | 15 | 220 | 3.2 | 9.7 | 0.00 | 0.00 | 0.00 | 87 | 1012.8 |
| 20260507062939 | 15 | 256 | 1.6 | 6.4 | 0.00 | 0.00 | 0.00 | 89 | 1012.5 |
| 20260507055930 | 14 | 291 | 0.0 | 0.0 | 0.00 | 0.00 | 0.00 | 90 | 1012.6 |
| 20260507052925 | 12 | 291 | 0.0 | 0.0 | 0.00 | 0.00 | 0.00 | 89 | 1012.4 |
| 20260507045933 | 11 | 291 | 0.0 | 0.0 | 0.00 | 0.00 | 0.00 | 88 | 1012.1 |
| 20260507042931 | 12 | 291 | 0.0 | 0.0 | 0.00 | 0.10 | 0.00 | 87 | 1011.9 |
| 20260507035924 | 12 | 291 | 0.0 | 0.0 | 0.00 | 0.10 | 0.00 | 87 | 1011.9 |
| 20260507032920 | 13 | 291 | 0.0 | 0.0 | 0.00 | 0.10 | 0.00 | 86 | 1011.8 |
| 20260507025925 | 13 | 291 | 0.0 | 0.0 | 0.00 | 0.10 | 0.00 | 85 | 1011.9 |
| 20260507022915 | 14 | 291 | 0.0 | 0.0 | 0.00 | 0.10 | 0.03 | 85 | 1011.9 |
| 20260507015926 | 15 | 291 | 3.2 | 4.8 | 0.00 | 0.10 | 0.03 | 84 | 1011.9 |
| 20260507012924 | 15 | 294 | 1.6 | 4.8 | 0.00 | 0.10 | 0.03 | 84 | 1012.0 |
| 20260507005917 | 15 | 325 | 4.8 | 8.0 | 0.00 | 0.10 | 0.03 | 84 | 1012.1 |
| 20260507002926 | 15 | 231 | 6.4 | 12.9 | 0.00 | 4.19 | 0.03 | 83 | 1012.3 |
| 20260506235913 | 16 | 231 | 11.3 | 20.9 | 0.00 | 4.19 | 0.03 | 83 | 1012.5 |
| 20260506232928 | 16 | 255 | 11.3 | 22.5 | 0.00 | 4.29 | 0.03 | 82 | 1012.7 |
| 20260506225939 | 16 | 235 | 9.7 | 27.4 | 0.00 | 4.29 | 0.03 | 82 | 1012.9 |
| 20260506222929 | 16 | 287 | 12.9 | 24.1 | 0.00 | 4.29 | 0.03 | 81 | 1012.9 |
| 20260506215918 | 15 | 241 | 11.3 | 20.9 | 0.00 | 4.29 | 0.03 | 80 | 1012.8 |